QPF
0.00 0.00 0.00 0.00 0.00 0.00 0.00 0.00 0.00 0.00 0.00 0.00 0.00 0.00 0.01 0.01 0.00 0.00 0.01 0.01 0.02 0.03 0.01 0.01 0.02 0.02 0.03 0.03 0.03 0.03 0.04 0.04 0.03 0.04 0.04 0.03 0.02 0.04 0.04 0.03 0.05 0.05 0.04
0.00 0.00 0.00 0.00 0.00 0.00 0.00 0.00 0.00 0.00 0.00 0.00 0.00 0.00 0.00 0.01 0.01 0.01 0.01 0.01 0.01 0.02 0.02 0.03 0.02 0.02 0.03 0.04 0.03 0.03 0.04 0.04 0.04 0.04 0.05 0.04 0.03 0.04 0.05 0.05 0.05 0.03 0.03
0.00 0.00 0.00 0.00 0.00 0.00 0.00 0.00 0.00 0.00 0.00 0.00 0.00 0.00 0.00 0.00 0.00 0.00 0.01 0.01 0.01 0.01 0.02 0.03 0.03 0.03 0.03 0.03 0.03 0.03 0.03 0.03 0.04 0.04 0.04 0.04 0.05 0.04 0.04 0.04 0.03 0.03 0.01
0.00 0.00 0.00 0.00 0.00 0.00 0.00 0.00 0.00 0.00 0.00 0.00 0.00 0.00 0.00 0.00 0.00 0.00 0.01 0.01 0.01 0.01 0.02 0.03 0.04 0.05 0.04 0.02 0.02 0.02 0.02 0.02 0.02 0.03 0.03 0.03 0.04 0.04 0.04 0.04 0.03 0.02 0.02
0.00 0.00 0.00 0.00 0.00 0.00 0.00 0.00 0.00 0.00 0.00 0.00 0.00 0.00 0.00 0.00 0.00 0.00 0.00 0.01 0.01 0.01 0.01 0.02 0.01 0.02 0.02 0.02 0.01 0.02 0.02 0.03 0.03 0.03 0.02 0.02 0.03 0.03 0.03 0.03 0.03 0.03 0.02
0.00 0.00 0.00 0.00 0.00 0.00 0.00 0.00 0.00 0.00 0.00 0.00 0.00 0.00 0.00 0.00 0.00 0.00 0.00 0.00 0.01 0.01 0.01 0.02 0.01 0.01 0.01 0.01 0.01 0.02 0.02 0.02 0.03 0.03 0.03 0.03 0.03 0.04 0.04 0.03 0.03 0.02 0.02
0.00 0.00 0.00 0.00 0.00 0.00 0.00 0.00 0.00 0.00 0.00 0.00 0.00 0.00 0.00 0.00 0.00 0.00 0.00 0.00 0.01 0.01 0.01 0.01 0.01 0.00 0.00 0.00 0.01 0.02 0.02 0.01 0.01 0.02 0.04 0.04 0.04 0.05 0.04 0.03 0.03 0.02 0.02
0.00 0.00 0.00 0.00 0.00 0.00 0.00 0.00 0.00 0.00 0.00 0.00 0.00 0.00 0.00 0.00 0.00 0.00 0.00 0.00 0.00 0.00 0.01 0.00 0.00 0.00 0.00 0.00 0.01 0.02 0.02 0.01 0.01 0.02 0.03 0.04 0.04 0.04 0.03 0.03 0.03 0.03 0.03
0.00 0.00 0.00 0.00 0.00 0.00 0.00 0.00 0.00 0.00 0.00 0.00 0.00 0.00 0.00 0.00 0.00 0.00 0.00 0.00 0.00 0.00 0.00 0.00 0.00 0.00 0.00 0.00 0.00 0.01 0.01 0.00 0.00 0.01 0.01 0.01 0.02 0.01 0.01 0.03 0.04 0.04 0.03
0.00 0.00 0.00 0.00 0.00 0.00 0.00 0.00 0.00 0.00 0.00 0.00 0.00 0.00 0.00 0.00 0.00 0.00 0.00 0.00 0.00 0.00 0.00 0.00 0.00 0.00 0.00 0.00 0.01 0.01 0.00 0.00 0.01 0.01 0.02 0.02 0.02 0.01 0.01 0.02 0.04 0.05 0.05
0.00 0.00 0.00 0.00 0.00 0.00 0.00 0.00 0.00 0.00 0.00 0.00 0.00 0.00 0.00 0.00 0.00 0.00 0.00 0.00 0.00 0.00 0.00 0.00 0.00 0.00 0.00 0.00 0.00 0.00 0.00 0.00 0.01 0.02 0.02 0.02 0.02 0.01 0.02 0.03 0.03 0.03 0.04
0.00 0.00 0.00 0.00 0.00 0.00 0.00 0.00 0.00 0.00 0.00 0.00 0.00 0.00 0.00 0.00 0.00 0.00 0.00 0.00 0.00 0.00 0.00 0.01 0.00 0.00 0.00 0.00 0.00 0.00 0.00 0.00 0.01 0.02 0.02 0.02 0.02 0.01 0.02 0.02 0.01 0.02 0.02
0.00 0.00 0.00 0.00 0.00 0.00 0.00 0.00 0.00 0.00 0.00 0.00 0.00 0.00 0.00 0.00 0.00 0.00 0.00 0.00 0.00 0.00 0.00 0.00 0.00 0.00 0.00 0.00 0.00 0.00 0.00 0.01 0.02 0.01 0.01 0.01 0.02 0.02 0.02 0.03 0.02 0.02 0.02
0.00 0.00 0.00 0.00 0.00 0.00 0.00 0.00 0.00 0.00 0.00 0.00 0.00 0.00 0.00 0.00 0.00 0.00 0.00 0.00 0.00 0.00 0.00 0.00 0.00 0.00 0.00 0.00 0.00 0.00 0.00 0.00 0.01 0.01 0.01 0.01 0.01 0.02 0.02 0.03 0.04 0.04 0.04
0.00 0.00 0.00 0.00 0.00 0.00 0.00 0.00 0.00 0.00 0.00 0.00 0.00 0.00 0.00 0.00 0.00 0.00 0.00 0.00 0.00 0.00 0.00 0.00 0.00 0.00 0.00 0.00 0.00 0.00 0.00 0.00 0.01 0.01 0.00 0.00 0.01 0.01 0.01 0.02 0.02 0.02 0.03
0.00 0.00 0.00 0.00 0.00 0.00 0.00 0.00 0.00 0.00 0.00 0.00 0.00 0.00 0.00 0.00 0.00 0.00 0.00 0.00 0.00 0.00 0.00 0.01 0.01 0.01 0.01 0.00 0.00 0.00 0.00 0.00 0.01 0.01 0.00 0.00 0.00 0.00 0.00 0.01 0.01 0.02 0.02
0.00 0.00 0.00 0.00 0.00 0.00 0.00 0.00 0.00 0.00 0.00 0.00 0.00 0.00 0.00 0.00 0.00 0.00 0.00 0.00 0.00 0.00 0.00 0.00 0.00 0.00 0.00 0.00 0.00 0.00 0.00 0.00 0.00 0.00 0.00 0.00 0.00 0.00 0.00 0.00 0.01 0.01 0.01
0.00 0.00 0.00 0.00 0.00 0.00 0.00 0.00 0.00 0.00 0.00 0.00 0.00 0.00 0.00 0.00 0.00 0.00 0.00 0.00 0.00 0.00 0.00 0.00 0.00 0.00 0.00 0.00 0.00 0.00 0.00 0.00 0.00 0.00 0.00 0.00 0.00 0.00 0.00 0.00 0.00 0.00 0.00
0.00 0.00 0.00 0.00 0.00 0.00 0.00 0.00 0.00 0.00 0.00 0.00 0.00 0.00 0.00 0.00 0.00 0.00 0.00 0.00 0.00 0.00 0.00 0.00 0.00 0.00 0.00 0.00 0.00 0.00 0.00 0.00 0.00 0.00 0.00 0.00 0.00 0.00 0.00 0.00 0.00 0.00 0.00
0.00 0.00 0.00 0.00 0.00 0.00 0.00 0.00 0.00 0.00 0.00 0.00 0.00 0.00 0.00 0.00 0.00 0.00 0.00 0.00 0.00 0.00 0.00 0.00 0.00 0.00 0.00 0.00 0.00 0.00 0.00 0.00 0.00 0.00 0.00 0.00 0.00 0.00 0.00 0.00 0.00 0.00 0.00
0.00 0.00 0.00 0.00 0.00 0.00 0.00 0.00 0.00 0.00 0.00 0.00 0.00 0.00 0.00 0.00 0.00 0.00 0.00 0.00 0.00 0.00 0.00 0.00 0.00 0.00 0.00 0.00 0.00 0.00 0.00 0.00 0.00 0.00 0.00 0.00 0.00 0.00 0.00 0.00 0.00 0.00 0.00
0.00 0.00 0.00 0.00 0.00 0.00 0.00 0.00 0.00 0.00 0.00 0.00 0.00 0.00 0.00 0.00 0.00 0.00 0.00 0.00 0.00 0.00 0.00 0.00 0.00 0.00 0.00 0.00 0.00 0.00 0.00 0.00 0.00 0.00 0.00 0.00 0.00 0.00 0.00 0.00 0.00 0.00 0.00
0.00 0.00 0.00 0.00 0.00 0.00 0.00 0.00 0.00 0.00 0.00 0.00 0.00 0.00 0.00 0.00 0.00 0.00 0.00 0.00 0.00 0.00 0.00 0.00 0.00 0.00 0.00 0.00 0.00 0.00 0.00 0.00 0.00 0.00 0.00 0.00 0.00 0.00 0.00 0.00 0.00 0.00 0.00
0.00 0.00 0.00 0.00 0.00 0.00 0.00 0.00 0.00 0.00 0.00 0.00 0.00 0.00 0.00 0.00 0.00 0.00 0.00 0.00 0.00 0.00 0.00 0.00 0.00 0.00 0.00 0.00 0.00 0.00 0.00 0.00 0.00 0.00 0.00 0.00 0.00 0.00 0.00 0.00 0.00 0.00 0.00
0.00 0.00 0.00 0.00 0.00 0.00 0.00 0.00 0.00 0.00 0.00 0.00 0.00 0.00 0.00 0.00 0.00 0.00 0.00 0.00 0.00 0.00 0.00 0.00 0.00 0.00 0.00 0.00 0.00 0.00 0.00 0.00 0.00 0.00 0.00 0.00 0.00 0.00 0.00 0.00 0.00 0.00 0.00
0.00 0.00 0.00 0.00 0.00 0.00 0.00 0.00 0.00 0.00 0.00 0.00 0.00 0.00 0.00 0.00 0.00 0.00 0.00 0.00 0.00 0.00 0.00 0.00 0.00 0.00 0.00 0.00 0.00 0.00 0.00 0.00 0.00 0.00 0.00 0.00 0.00 0.00 0.00 0.00 0.00 0.00 0.00
MSLP
1010.35 1010.56 1010.76 1010.94 1011.10 1011.24 1011.36 1011.48 1011.61 1011.76 1011.92 1012.11 1012.29 1012.46 1012.62 1012.74 1012.83 1012.90 1012.95 1013.01 1013.09 1013.20 1013.34 1013.50 1013.66 1013.81 1013.93 1014.01 1014.03 1014.00 1013.91 1013.79 1013.63 1013.45 1013.26 1013.05 1012.84 1012.63 1012.42 1012.22 1012.03 1011.87 1011.75
1010.05 1010.25 1010.44 1010.62 1010.80 1010.96 1011.12 1011.28 1011.45 1011.62 1011.81 1012.01 1012.19 1012.37 1012.51 1012.62 1012.70 1012.76 1012.80 1012.85 1012.90 1012.98 1013.09 1013.21 1013.35 1013.49 1013.62 1013.72 1013.80 1013.84 1013.85 1013.81 1013.74 1013.63 1013.49 1013.31 1013.10 1012.87 1012.62 1012.37 1012.13 1011.91 1011.72
1009.77 1009.99 1010.20 1010.39 1010.58 1010.76 1010.94 1011.13 1011.32 1011.51 1011.71 1011.91 1012.10 1012.28 1012.42 1012.53 1012.61 1012.66 1012.69 1012.72 1012.75 1012.80 1012.87 1012.96 1013.07 1013.20 1013.33 1013.46 1013.59 1013.69 1013.77 1013.81 1013.82 1013.78 1013.68 1013.54 1013.34 1013.11 1012.84 1012.55 1012.27 1011.99 1011.75
1009.47 1009.73 1009.97 1010.19 1010.39 1010.59 1010.78 1010.97 1011.16 1011.36 1011.57 1011.77 1011.96 1012.14 1012.29 1012.41 1012.49 1012.55 1012.59 1012.61 1012.63 1012.66 1012.70 1012.77 1012.86 1012.97 1013.10 1013.25 1013.40 1013.54 1013.67 1013.77 1013.83 1013.84 1013.79 1013.68 1013.50 1013.27 1013.00 1012.70 1012.39 1012.08 1011.78
1009.08 1009.41 1009.70 1009.95 1010.17 1010.37 1010.56 1010.74 1010.92 1011.11 1011.31 1011.51 1011.71 1011.89 1012.06 1012.19 1012.30 1012.38 1012.43 1012.47 1012.49 1012.52 1012.55 1012.61 1012.68 1012.78 1012.91 1013.06 1013.21 1013.38 1013.53 1013.65 1013.74 1013.78 1013.75 1013.66 1013.51 1013.30 1013.04 1012.75 1012.43 1012.10 1011.77
1008.56 1008.97 1009.32 1009.61 1009.85 1010.06 1010.24 1010.40 1010.57 1010.74 1010.92 1011.11 1011.31 1011.50 1011.69 1011.85 1011.98 1012.09 1012.18 1012.24 1012.28 1012.32 1012.37 1012.42 1012.50 1012.59 1012.71 1012.85 1013.00 1013.16 1013.30 1013.43 1013.52 1013.56 1013.54 1013.47 1013.33 1013.15 1012.91 1012.64 1012.33 1012.01 1011.67
1007.92 1008.41 1008.82 1009.15 1009.42 1009.63 1009.80 1009.95 1010.10 1010.25 1010.41 1010.59 1010.78 1010.98 1011.17 1011.36 1011.52 1011.66 1011.78 1011.88 1011.96 1012.02 1012.09 1012.16 1012.25 1012.35 1012.47 1012.60 1012.73 1012.87 1012.99 1013.09 1013.15 1013.18 1013.16 1013.08 1012.96 1012.80 1012.59 1012.35 1012.08 1011.78 1011.44
1007.19 1007.74 1008.21 1008.59 1008.88 1009.11 1009.29 1009.43 1009.56 1009.70 1009.84 1010.01 1010.19 1010.38 1010.57 1010.76 1010.94 1011.10 1011.25 1011.37 1011.49 1011.59 1011.69 1011.79 1011.90 1012.02 1012.14 1012.27 1012.39 1012.50 1012.60 1012.66 1012.69 1012.69 1012.64 1012.56 1012.44 1012.30 1012.12 1011.92 1011.68 1011.41 1011.10
1006.41 1007.01 1007.53 1007.96 1008.29 1008.55 1008.74 1008.90 1009.03 1009.16 1009.30 1009.45 1009.61 1009.79 1009.97 1010.15 1010.32 1010.48 1010.64 1010.78 1010.91 1011.05 1011.18 1011.31 1011.45 1011.60 1011.74 1011.88 1012.00 1012.10 1012.17 1012.20 1012.20 1012.16 1012.09 1011.99 1011.87 1011.73 1011.57 1011.40 1011.19 1010.96 1010.67
1005.66 1006.28 1006.84 1007.31 1007.69 1008.00 1008.23 1008.42 1008.58 1008.73 1008.87 1009.01 1009.16 1009.31 1009.46 1009.61 1009.75 1009.89 1010.03 1010.17 1010.31 1010.45 1010.61 1010.78 1010.96 1011.14 1011.31 1011.47 1011.61 1011.71 1011.78 1011.79 1011.77 1011.70 1011.61 1011.48 1011.35 1011.20 1011.05 1010.89 1010.71 1010.49 1010.23
1004.96 1005.58 1006.16 1006.68 1007.12 1007.49 1007.79 1008.04 1008.26 1008.44 1008.60 1008.75 1008.88 1009.01 1009.12 1009.23 1009.33 1009.42 1009.52 1009.63 1009.76 1009.90 1010.07 1010.27 1010.48 1010.70 1010.91 1011.11 1011.28 1011.41 1011.49 1011.50 1011.47 1011.39 1011.27 1011.13 1010.97 1010.81 1010.64 1010.48 1010.30 1010.09 1009.85
1004.31 1004.93 1005.52 1006.08 1006.58 1007.03 1007.42 1007.76 1008.05 1008.29 1008.50 1008.67 1008.81 1008.91 1008.99 1009.05 1009.10 1009.14 1009.19 1009.25 1009.34 1009.47 1009.64 1009.85 1010.09 1010.35 1010.61 1010.85 1011.07 1011.23 1011.34 1011.38 1011.35 1011.26 1011.13 1010.97 1010.79 1010.60 1010.42 1010.23 1010.04 1009.83 1009.58
1003.71 1004.29 1004.89 1005.49 1006.06 1006.59 1007.08 1007.52 1007.91 1008.24 1008.51 1008.73 1008.89 1008.99 1009.05 1009.07 1009.07 1009.05 1009.05 1009.06 1009.11 1009.22 1009.37 1009.58 1009.84 1010.13 1010.43 1010.72 1010.98 1011.19 1011.34 1011.41 1011.40 1011.33 1011.19 1011.02 1010.82 1010.60 1010.39 1010.17 1009.95 1009.72 1009.47
1003.12 1003.66 1004.25 1004.87 1005.51 1006.13 1006.72 1007.27 1007.77 1008.19 1008.55 1008.83 1009.03 1009.15 1009.21 1009.22 1009.18 1009.13 1009.08 1009.06 1009.07 1009.15 1009.29 1009.49 1009.75 1010.06 1010.39 1010.72 1011.02 1011.27 1011.45 1011.56 1011.58 1011.53 1011.40 1011.22 1011.00 1010.77 1010.53 1010.28 1010.04 1009.79 1009.52
1002.52 1003.00 1003.58 1004.22 1004.90 1005.60 1006.28 1006.94 1007.53 1008.06 1008.51 1008.87 1009.13 1009.30 1009.38 1009.40 1009.37 1009.30 1009.24 1009.19 1009.18 1009.24 1009.36 1009.55 1009.81 1010.12 1010.45 1010.80 1011.13 1011.41 1011.62 1011.76 1011.81 1011.78 1011.67 1011.50 1011.29 1011.04 1010.78 1010.52 1010.25 1009.99 1009.71
1001.90 1002.33 1002.87 1003.52 1004.23 1004.97 1005.73 1006.46 1007.15 1007.77 1008.31 1008.75 1009.08 1009.32 1009.45 1009.51 1009.51 1009.47 1009.42 1009.38 1009.37 1009.42 1009.53 1009.71 1009.95 1010.25 1010.58 1010.93 1011.26 1011.55 1011.78 1011.94 1012.02 1012.01 1011.92 1011.77 1011.57 1011.33 1011.07 1010.81 1010.54 1010.27 1009.99
1001.30 1001.66 1002.17 1002.79 1003.50 1004.27 1005.07 1005.85 1006.61 1007.30 1007.91 1008.42 1008.83 1009.14 1009.35 1009.48 1009.54 1009.55 1009.55 1009.54 1009.56 1009.61 1009.73 1009.90 1010.13 1010.41 1010.72 1011.04 1011.36 1011.64 1011.88 1012.04 1012.14 1012.15 1012.09 1011.97 1011.79 1011.58 1011.34 1011.09 1010.83 1010.57 1010.31
1000.76 1001.05 1001.50 1002.08 1002.77 1003.53 1004.33 1005.13 1005.92 1006.65 1007.32 1007.89 1008.38 1008.76 1009.05 1009.26 1009.40 1009.49 1009.56 1009.61 1009.67 1009.76 1009.89 1010.06 1010.28 1010.54 1010.83 1011.12 1011.41 1011.67 1011.89 1012.06 1012.16 1012.19 1012.15 1012.06 1011.92 1011.74 1011.54 1011.32 1011.09 1010.85 1010.61
1000.32 1000.54 1000.92 1001.44 1002.07 1002.79 1003.56 1004.36 1005.14 1005.89 1006.58 1007.20 1007.74 1008.19 1008.56 1008.86 1009.09 1009.27 1009.42 1009.55 1009.68 1009.82 1009.98 1010.17 1010.39 1010.63 1010.89 1011.16 1011.42 1011.65 1011.85 1012.00 1012.10 1012.14 1012.13 1012.07 1011.96 1011.82 1011.66 1011.48 1011.28 1011.08 1010.86
999.99 1000.13 1000.44 1000.88 1001.44 1002.10 1002.82 1003.57 1004.32 1005.06 1005.76 1006.40 1006.98 1007.49 1007.93 1008.31 1008.63 1008.91 1009.15 1009.36 1009.57 1009.77 1009.98 1010.20 1010.43 1010.68 1010.92 1011.17 1011.40 1011.61 1011.79 1011.92 1012.02 1012.07 1012.07 1012.03 1011.96 1011.86 1011.73 1011.58 1011.42 1011.23 1011.03
999.77 999.84 1000.06 1000.42 1000.90 1001.47 1002.12 1002.81 1003.52 1004.23 1004.92 1005.57 1006.17 1006.72 1007.22 1007.67 1008.07 1008.43 1008.76 1009.07 1009.35 1009.63 1009.90 1010.16 1010.43 1010.69 1010.94 1011.18 1011.40 1011.60 1011.76 1011.88 1011.97 1012.02 1012.03 1012.01 1011.96 1011.88 1011.78 1011.65 1011.50 1011.33 1011.13
999.63 999.62 999.76 1000.03 1000.42 1000.91 1001.48 1002.10 1002.76 1003.43 1004.10 1004.75 1005.36 1005.95 1006.49 1007.00 1007.47 1007.90 1008.31 1008.70 1009.06 1009.41 1009.75 1010.08 1010.39 1010.69 1010.97 1011.22 1011.45 1011.65 1011.80 1011.93 1012.01 1012.05 1012.07 1012.05 1012.00 1011.92 1011.83 1011.71 1011.56 1011.39 1011.18
999.52 999.44 999.49 999.67 999.98 1000.39 1000.88 1001.45 1002.06 1002.70 1003.34 1003.99 1004.62 1005.22 1005.80 1006.35 1006.88 1007.38 1007.85 1008.31 1008.74 1009.17 1009.57 1009.97 1010.34 1010.69 1011.02 1011.31 1011.56 1011.77 1011.94 1012.06 1012.14 1012.18 1012.19 1012.16 1012.10 1012.01 1011.90 1011.77 1011.61 1011.42 1011.19
999.41 999.25 999.23 999.33 999.56 999.90 1000.34 1000.85 1001.43 1002.04 1002.68 1003.32 1003.96 1004.59 1005.20 1005.79 1006.35 1006.90 1007.42 1007.94 1008.43 1008.92 1009.39 1009.85 1010.29 1010.71 1011.08 1011.42 1011.72 1011.96 1012.15 1012.28 1012.36 1012.39 1012.37 1012.32 1012.24 1012.13 1011.99 1011.84 1011.65 1011.43 1011.18
999.28 999.07 998.98 999.01 999.18 999.46 999.86 1000.34 1000.89 1001.49 1002.13 1002.78 1003.44 1004.09 1004.72 1005.34 1005.94 1006.52 1007.08 1007.63 1008.18 1008.71 1009.24 1009.76 1010.26 1010.73 1011.16 1011.55 1011.89 1012.17 1012.38 1012.52 1012.60 1012.62 1012.58 1012.50 1012.39 1012.24 1012.07 1011.88 1011.67 1011.43 1011.15
999.18 998.92 998.78 998.76 998.88 999.13 999.49 999.95 1000.49 1001.09 1001.74 1002.41 1003.08 1003.75 1004.41 1005.05 1005.67 1006.27 1006.86 1007.43 1008.01 1008.58 1009.14 1009.70 1010.24 1010.76 1011.24 1011.67 1012.04 1012.35 1012.58 1012.73 1012.80 1012.81 1012.75 1012.64 1012.49 1012.31 1012.10 1011.87 1011.63 1011.37 1011.09
Thickness
5731 5727 5724 5721 5717 5714 5709 5706 5703 5700 5698 5695 5692 5690 5688 5686 5684 5681 5679 5678 5677 5677 5678 5677 5676 5677 5676 5676 5677 5678 5678 5678 5675 5680 5687 5692 5695 5696 5698 5701 5703 5705 5708
5733 5729 5725 5722 5719 5715 5711 5708 5705 5702 5700 5697 5693 5690 5688 5686 5684 5681 5679 5678 5677 5676 5676 5676 5675 5675 5674 5674 5674 5674 5674 5676 5674 5673 5678 5682 5686 5689 5691 5693 5697 5700 5702
5733 5730 5726 5723 5720 5716 5713 5710 5707 5704 5701 5698 5695 5691 5689 5686 5684 5682 5680 5679 5678 5677 5676 5674 5674 5673 5671 5672 5672 5671 5671 5673 5673 5671 5672 5676 5679 5683 5684 5686 5690 5693 5696
5733 5729 5726 5724 5721 5718 5716 5712 5708 5705 5701 5698 5696 5693 5690 5687 5684 5682 5680 5679 5678 5677 5677 5675 5673 5671 5669 5669 5669 5668 5669 5668 5668 5668 5668 5669 5672 5676 5677 5677 5678 5683 5686
5733 5729 5726 5725 5723 5719 5716 5712 5709 5706 5703 5699 5696 5693 5691 5688 5684 5681 5678 5678 5676 5676 5676 5675 5673 5671 5669 5667 5666 5664 5664 5663 5663 5663 5663 5664 5665 5667 5668 5671 5671 5674 5678
5734 5730 5728 5726 5723 5719 5716 5713 5709 5705 5703 5700 5696 5693 5690 5688 5684 5681 5678 5675 5675 5674 5674 5674 5672 5670 5668 5666 5665 5664 5663 5661 5659 5658 5658 5658 5660 5662 5664 5665 5665 5665 5666
5734 5731 5729 5725 5722 5719 5717 5713 5708 5705 5702 5699 5696 5693 5690 5687 5685 5682 5679 5675 5673 5673 5673 5672 5672 5671 5667 5665 5664 5663 5662 5661 5659 5657 5655 5655 5657 5658 5659 5659 5659 5658 5660
5734 5732 5729 5725 5721 5719 5715 5712 5708 5706 5702 5699 5696 5694 5691 5688 5685 5682 5679 5675 5673 5673 5673 5672 5670 5668 5666 5663 5661 5660 5659 5660 5659 5657 5656 5655 5656 5656 5655 5655 5654 5656 5658
5734 5732 5729 5725 5721 5717 5713 5711 5709 5706 5703 5701 5698 5695 5691 5689 5686 5683 5679 5675 5673 5673 5673 5672 5670 5666 5664 5662 5659 5657 5657 5657 5658 5657 5657 5656 5655 5654 5653 5650 5649 5649 5650
5735 5732 5730 5726 5721 5716 5713 5711 5709 5706 5703 5701 5698 5696 5693 5690 5687 5683 5679 5675 5672 5672 5672 5671 5669 5665 5662 5660 5656 5654 5651 5651 5653 5653 5653 5653 5653 5652 5651 5648 5647 5645 5645
5736 5732 5728 5725 5721 5717 5713 5710 5708 5705 5702 5699 5697 5696 5694 5691 5688 5683 5679 5674 5672 5670 5669 5668 5666 5663 5660 5657 5654 5650 5648 5647 5648 5648 5648 5648 5649 5649 5648 5647 5645 5643 5640
5733 5728 5724 5721 5719 5716 5710 5707 5705 5701 5697 5695 5693 5692 5692 5691 5687 5682 5678 5674 5671 5667 5665 5664 5663 5661 5657 5654 5650 5648 5646 5644 5643 5642 5642 5642 5642 5642 5642 5642 5641 5641 5640
5727 5722 5719 5716 5713 5711 5706 5702 5699 5696 5693 5691 5689 5688 5687 5686 5683 5680 5676 5672 5669 5664 5662 5661 5658 5656 5653 5650 5647 5644 5642 5639 5638 5637 5636 5635 5635 5636 5636 5636 5636 5636 5637
5720 5716 5713 5710 5706 5704 5701 5698 5694 5691 5689 5687 5686 5683 5682 5679 5675 5672 5670 5667 5665 5661 5658 5656 5653 5650 5647 5644 5641 5638 5636 5634 5632 5630 5628 5628 5628 5628 5627 5627 5626 5627 5627
5714 5711 5707 5704 5701 5697 5692 5688 5687 5683 5683 5681 5679 5678 5674 5670 5665 5664 5662 5661 5659 5658 5655 5651 5647 5643 5640 5637 5634 5631 5629 5626 5623 5621 5620 5619 5618 5618 5617 5617 5617 5616 5616
5707 5704 5701 5698 5694 5690 5682 5674 5672 5673 5673 5673 5672 5669 5665 5662 5659 5658 5657 5655 5655 5653 5650 5645 5641 5637 5633 5629 5626 5622 5619 5616 5614 5612 5611 5609 5608 5607 5606 5606 5606 5605 5604
5701 5699 5696 5693 5689 5684 5678 5672 5664 5659 5660 5661 5661 5659 5657 5654 5652 5650 5649 5648 5647 5646 5641 5636 5631 5627 5623 5620 5616 5613 5609 5607 5605 5603 5601 5599 5598 5597 5596 5595 5594 5593 5592
5695 5693 5690 5687 5684 5680 5675 5671 5665 5659 5653 5649 5648 5648 5647 5645 5644 5642 5641 5639 5636 5634 5630 5625 5621 5617 5613 5610 5606 5603 5600 5597 5595 5592 5590 5588 5587 5585 5584 5583 5582 5581 5580
5685 5684 5683 5681 5678 5674 5670 5667 5662 5658 5653 5647 5641 5637 5637 5636 5635 5634 5633 5630 5627 5623 5619 5615 5611 5607 5604 5600 5596 5593 5590 5587 5584 5582 5579 5577 5575 5573 5572 5570 5569 5570 5569
5674 5675 5674 5671 5669 5666 5664 5661 5658 5654 5649 5644 5639 5634 5630 5628 5626 5624 5623 5621 5618 5614 5610 5606 5602 5598 5594 5590 5586 5583 5580 5577 5574 5571 5568 5566 5563 5561 5559 5558 5557 5556 5555
5662 5663 5663 5662 5661 5659 5657 5655 5653 5649 5645 5641 5636 5632 5628 5624 5622 5619 5615 5612 5609 5605 5601 5597 5592 5588 5584 5580 5576 5573 5570 5566 5563 5559 5556 5553 5551 5549 5547 5545 5544 5543 5543
5649 5651 5651 5652 5651 5651 5650 5648 5645 5642 5639 5634 5628 5624 5621 5618 5615 5611 5608 5604 5601 5597 5592 5588 5583 5579 5574 5570 5566 5562 5558 5554 5550 5547 5543 5540 5538 5535 5534 5532 5531 5529 5529
5634 5637 5639 5640 5641 5641 5639 5638 5636 5634 5630 5626 5621 5616 5612 5610 5607 5603 5599 5595 5591 5587 5582 5578 5573 5568 5564 5560 5556 5551 5546 5541 5537 5533 5530 5527 5524 5522 5520 5518 5517 5516 5514
5619 5623 5625 5628 5629 5629 5629 5628 5626 5624 5621 5617 5613 5609 5605 5602 5598 5595 5590 5586 5581 5577 5572 5568 5563 5559 5554 5549 5544 5539 5533 5528 5524 5520 5517 5513 5511 5509 5507 5505 5504 5502 5501
5603 5608 5611 5614 5616 5617 5617 5616 5615 5613 5611 5608 5605 5601 5597 5593 5589 5584 5580 5576 5571 5566 5562 5557 5552 5548 5543 5538 5532 5526 5521 5516 5512 5508 5504 5501 5498 5496 5494 5492 5491 5489 5487
5587 5592 5597 5600 5602 5604 5605 5604 5603 5601 5599 5597 5595 5591 5587 5583 5578 5574 5569 5565 5560 5555 5550 5546 5541 5536 5531 5525 5520 5514 5509 5504 5500 5496 5492 5489 5487 5484 5482 5480 5478 5476 5474